Location: Antioch Baptist Church
(32.6696°N, 85.7327°W)
Time: 09:30:57
(UTC+00:00)

Cosmos-2242 - Pass Details

Date: 29 October 2020
Orbit: 592 x 616 km, 82.5° (Epoch: 26 November)

Event Time Altitude Azimuth Distance (km) Brightness Sun altitude
Rises 00:56:43 0° 188° (S) 2,811 6.5 -26.1°
Reaches altitude 10° 00:58:54 10° 189° (S) 1,915 5.6 -26.6°
Enters shadow 00:59:30 14° 190° (S) 1,679 5.3 -26.7°
